Date String (YYYY-MM-DD hh:mm:ss) UTC,Instrument flags,Ambient pressure (hPa),Sample flow (lpm),Bypass flow (lpm),Sample temperature (°C),Ambient temperature (°C),ASC tube jacket temperature (°C),LED temperature (°C),Box temperature (°C),Sample RH (%),Span deviation,Mass concentration (μg/m³),Mass concentration (μg/m³),Mass concentration (μg/m³)
DateTimeUTC,F1_M11,P_M11,Q1_M11,Q2_M11,T1_M11,T2_M11,T3_M11,T4_M11,T5_M11,U1_M11,ZSPAN_M11,X0_M11,X2_M11,X1_M11
2022-11-04 23:00:00,,0818.5,5.00,0.00,26.0,24.6,00.0,34.8,27.9,07.1,0000.0,0001.58,0001.07,0000.92
2022-11-04 23:01:00,,0818.5,5.00,0.00,26.0,24.6,00.0,34.8,27.9,07.2,0000.0,0001.59,0001.07,0000.93
2022-11-04 23:02:00,,0818.5,5.01,0.00,26.0,24.6,00.0,34.8,27.9,07.2,0000.0,0001.90,0001.11,0000.93
2022-11-04 23:03:00,,0818.5,4.98,0.00,26.0,24.6,00.0,34.8,27.9,07.2,0000.0,0002.00,0001.15,0000.94
2022-11-04 23:04:00,,0818.5,5.00,0.00,26.0,24.5,00.0,34.8,27.9,07.3,0000.0,0002.10,0001.18,0000.94
2022-11-04 23:05:00,,0818.5,5.01,0.00,26.0,24.5,00.0,34.8,27.9,07.4,0000.0,0002.20,0001.22,0000.94
2022-11-04 23:06:00,,0818.6,5.01,0.00,26.0,24.5,00.0,34.8,27.9,07.3,0000.0,0002.33,0001.25,0000.94
2022-11-04 23:07:00,,0818.6,4.98,0.00,26.0,24.5,00.0,34.8,27.9,07.4,0000.0,0002.46,0001.26,0000.93
2022-11-04 23:08:00,,0818.5,5.00,0.00,26.0,24.5,00.0,34.8,27.9,07.5,0000.0,0002.48,0001.27,0000.93
2022-11-04 23:09:00,,0818.4,5.00,0.00,26.0,24.5,00.0,34.8,27.9,07.2,0000.0,0002.35,0001.27,0000.93
2022-11-04 23:10:00,,0818.4,5.01,0.00,26.0,24.5,00.0,34.8,27.9,07.1,0000.0,0002.44,0001.30,0000.93
2022-11-04 23:11:00,,0818.4,4.98,0.00,26.0,24.6,00.0,34.8,27.9,07.1,0000.0,0002.40,0001.30,0000.92
2022-11-04 23:12:00,,0818.4,5.02,0.00,26.0,24.6,00.0,34.8,27.9,07.2,0000.0,0002.49,0001.34,0000.91
2022-11-04 23:13:00,,0818.4,5.00,0.00,26.0,24.5,00.0,34.8,27.8,07.5,0000.0,0002.22,0001.31,0000.90
2022-11-04 23:14:00,,0818.4,4.98,0.00,26.0,24.5,00.0,34.8,27.9,07.7,0000.0,0002.27,0001.31,0000.90
2022-11-04 23:15:00,,0818.5,5.01,0.00,26.0,24.6,00.0,34.8,27.9,07.6,0000.0,0002.23,0001.30,0000.89
2022-11-04 23:16:00,,0818.4,5.01,0.00,26.0,24.5,00.0,34.8,27.9,07.6,0000.0,0002.38,0001.28,0000.89
2022-11-04 23:17:00,,0818.4,5.00,0.00,26.0,24.5,00.0,34.8,27.9,07.4,0000.0,0002.25,0001.23,0000.88
2022-11-04 23:18:00,,0818.4,5.00,0.00,26.0,24.5,00.0,34.8,27.9,07.5,0000.0,0002.12,0001.21,0000.88
2022-11-04 23:19:00,,0818.4,5.00,0.00,26.0,24.5,00.0,34.8,27.9,07.8,0000.0,0002.07,0001.18,0000.88
2022-11-04 23:20:00,,0818.4,4.99,0.00,26.0,24.5,00.0,34.8,27.8,08.0,0000.0,0002.03,0001.15,0000.87
2022-11-04 23:21:00,,0818.4,5.01,0.00,26.0,24.4,00.0,34.8,27.8,07.8,0000.0,0002.01,0001.14,0000.86
2022-11-04 23:22:00,,0818.5,5.01,0.00,26.0,24.5,00.0,34.8,27.8,07.9,0000.0,0002.03,0001.13,0000.86
2022-11-04 23:23:00,,0818.5,5.00,0.00,26.0,24.5,00.0,34.8,27.9,07.9,0000.0,0002.01,0001.12,0000.86
2022-11-04 23:24:00,,0818.4,5.00,0.00,26.0,24.5,00.0,34.8,27.9,08.0,0000.0,0002.00,0001.12,0000.87
2022-11-04 23:25:00,,0818.5,4.98,0.00,26.0,24.5,00.0,34.8,27.9,08.0,0000.0,0001.85,0001.08,0000.87
2022-11-04 23:26:00,,0818.6,5.01,0.00,26.0,24.5,00.0,34.8,27.9,08.0,0000.0,0001.91,0001.19,0000.99
2022-11-04 23:27:00,,0818.7,5.01,0.00,26.0,24.5,00.0,34.8,27.9,08.8,0000.0,0002.35,0001.41,0001.17
2022-11-04 23:28:00,,0818.7,4.99,0.00,26.0,24.5,00.0,34.8,27.9,07.9,0000.0,0002.66,0001.55,0001.27
2022-11-04 23:29:00,,0818.7,5.00,0.00,26.0,24.5,00.0,34.8,27.8,07.5,0000.0,0002.76,0001.61,0001.30
2022-11-04 23:30:00,,0818.7,5.01,0.00,26.0,24.5,00.0,34.8,27.8,08.0,0000.0,0002.74,0001.62,0001.32
2022-11-04 23:31:00,,0818.6,5.01,0.00,26.0,24.5,00.0,34.8,27.8,08.9,0000.0,0003.04,0001.80,0001.46
2022-11-04 23:32:00,,0818.7,4.99,0.00,26.0,24.5,00.0,34.8,27.8,09.8,0000.0,0003.40,0002.15,0001.78
2022-11-04 23:33:00,,0818.7,5.00,0.00,26.0,24.5,00.0,34.8,27.8,09.5,0000.0,0003.69,0002.49,0002.13
2022-11-04 23:34:00,,0818.7,5.00,0.00,26.0,24.5,00.0,34.8,27.9,09.4,0000.0,0003.97,0002.79,0002.44
2022-11-04 23:35:00,,0818.6,5.00,0.00,26.0,24.5,00.0,34.7,27.8,09.2,0000.0,0004.36,0003.10,0002.74
2022-11-04 23:36:00,,0818.7,5.00,0.00,26.0,24.5,00.0,34.7,27.8,09.3,0000.0,0004.75,0003.29,0003.01
2022-11-04 23:37:00,,0818.8,5.00,0.00,26.0,24.5,00.0,34.8,27.9,09.2,0000.0,0004.94,0003.40,0003.17
2022-11-04 23:38:00,,0818.7,5.02,0.00,26.0,24.5,00.0,34.8,27.8,10.2,0000.0,0004.94,0003.53,0003.30
2022-11-04 23:39:00,,0818.7,4.99,0.00,26.0,24.5,00.0,34.8,27.9,09.1,0000.0,0004.83,0003.61,0003.39
2022-11-04 23:40:00,,0818.7,4.99,0.00,26.0,24.5,00.0,34.8,27.9,07.9,0000.0,0004.77,0003.61,0003.42
2022-11-04 23:41:00,,0818.7,5.00,0.00,26.0,24.5,00.0,34.7,27.8,08.0,0000.0,0004.91,0003.65,0003.45
2022-11-04 23:42:00,,0818.7,5.00,0.00,25.9,24.4,00.0,34.7,27.8,07.6,0000.0,0004.72,0003.59,0003.40
2022-11-04 23:43:00,,0818.7,5.01,0.00,25.9,24.4,00.0,34.7,27.8,07.8,0000.0,0004.38,0003.41,0003.24
2022-11-04 23:44:00,,0818.7,5.00,0.00,25.9,24.4,00.0,34.7,27.8,08.8,0000.0,0004.19,0003.32,0003.14
2022-11-04 23:45:00,,0818.7,5.00,0.00,25.9,24.4,00.0,34.7,27.8,08.4,0000.0,0004.02,0003.24,0003.04
2022-11-04 23:46:00,,0818.7,5.00,0.00,25.9,24.4,00.0,34.7,27.7,09.1,0000.0,0004.44,0003.17,0002.94
2022-11-04 23:47:00,,0818.7,5.00,0.00,25.9,24.4,00.0,34.7,27.8,09.2,0000.0,0004.68,0003.18,0002.92
2022-11-04 23:48:00,,0818.7,5.01,0.00,25.9,24.4,00.0,34.7,27.8,09.0,0000.0,0004.75,0003.16,0002.84
2022-11-04 23:49:00,,0818.7,5.00,0.00,25.9,24.4,00.0,34.7,27.7,08.9,0000.0,0004.50,0002.97,0002.65
2022-11-04 23:50:00,,0818.8,4.99,0.00,25.9,24.4,00.0,34.7,27.7,08.2,0000.0,0004.55,0002.78,0002.47
2022-11-04 23:51:00,,0818.7,5.00,0.00,25.9,24.4,00.0,34.7,27.8,08.7,0000.0,0004.96,0002.80,0002.49
2022-11-04 23:52:00,,0818.7,5.00,0.00,25.9,24.4,00.0,34.7,27.8,09.3,0000.0,0005.04,0002.97,0002.65
2022-11-04 23:53:00,,0818.7,5.00,0.00,25.9,24.4,00.0,34.7,27.8,10.1,0000.0,0005.54,0003.28,0003.05
2022-11-04 23:54:00,,0818.8,5.00,0.00,25.9,24.4,00.0,34.7,27.8,10.7,0000.0,0006.42,0003.58,0003.35
2022-11-04 23:55:00,,0818.7,5.01,0.00,25.9,24.4,00.0,34.7,27.8,10.4,0000.0,0007.09,0003.81,0003.56
2022-11-04 23:56:00,,0818.8,4.99,0.00,25.9,24.4,00.0,34.7,27.8,09.7,0000.0,0007.52,0003.94,0003.68
2022-11-04 23:57:00,,0818.7,5.00,0.00,25.9,24.4,00.0,34.7,27.8,09.0,0000.0,0007.39,0003.94,0003.68
2022-11-04 23:58:00,,0818.7,5.00,0.00,25.9,24.4,00.0,34.7,27.7,08.6,0000.0,0007.02,0003.86,0003.63
2022-11-04 23:59:00,,0818.8,5.00,0.00,25.9,24.4,00.0,34.7,27.7,08.3,0000.0,0006.71,0003.74,0003.53
